This is the latest recevied weather packets stored in our database for station/object KC3ELT-10. If no packets are shown the sender has not sent any weather packets the latest 10 day(s).
| Time | Temp. | Humidity | Pressure | Rain* | Wind** | Luminosity | Snow |
|---|---|---|---|---|---|---|---|
| 1777264339 | 6.67° C | 80% | 1017.2 hPa | 0.25 mm | 0.45 m/s, 185° | - | - |
| 1777264039 | 6.67° C | 80% | 1017.2 hPa | 0.25 mm | 1.34 m/s, 200° | - | - |
| 1777263739 | 6.67° C | 80% | 1017.2 hPa | 0.25 mm | 1.34 m/s, 213° | - | - |
| 1777263439 | 6.67° C | 80% | 1017.2 hPa | 0.25 mm | 2.24 m/s, 187° | - | - |
| 1777263139 | 6.67° C | 80% | 1017.4 hPa | 0.25 mm | 0.45 m/s, 165° | - | - |
| 1777262839 | 6.67° C | 80% | 1017.4 hPa | 0.25 mm | 0.89 m/s, 181° | - | - |
| 1777262539 | 6.67° C | 80% | 1017.4 hPa | 0.25 mm | 1.79 m/s, 219° | - | - |
| 1777262240 | 6.67° C | 80% | 1017.4 hPa | 0 mm | 0.89 m/s, 207° | - | - |
| 1777261940 | 6.67° C | 80% | 1017.4 hPa | 0 mm | 0.89 m/s, 208° | - | - |
| 1777261640 | 6.67° C | 80% | 1017.4 hPa | 0 mm | 0.45 m/s, 193° | - | - |
| 1777261340 | 6.67° C | 80% | 1017.4 hPa | 0 mm | 0.89 m/s, 201° | - | - |
| 1777261040 | 6.67° C | 80% | 1017.4 hPa | 0 mm | 0.45 m/s, 192° | - | - |
| 1777260739 | 6.67° C | 79% | 1017.4 hPa | 0 mm | 0.89 m/s, 153° | - | - |
| 1777260439 | 7.22° C | 79% | 1017.4 hPa | 0 mm | 0 m/s | - | - |
| 1777260140 | 7.22° C | 79% | 1017.4 hPa | 0 mm | 0.89 m/s, 176° | - | - |
| 1777259840 | 7.22° C | 79% | 1017.4 hPa | 0 mm | 0.89 m/s, 161° | - | - |
| 1777259540 | 7.22° C | 79% | 1017.3 hPa | 0 mm | 0.45 m/s, 167° | - | - |
| 1777259240 | 7.22° C | 79% | 1017.3 hPa | 0 mm | 0.89 m/s, 154° | - | - |
| 1777258940 | 7.22° C | 79% | 1017.3 hPa | 0 mm | 0.89 m/s, 166° | - | - |
| 1777258639 | 7.22° C | 79% | 1017.1 hPa | 0 mm | 0 m/s | - | - |
| 1777258340 | 7.22° C | 79% | 1017.1 hPa | 0 mm | 0 m/s | - | - |
| 1777258039 | 7.78° C | 78% | 1017.1 hPa | 0 mm | 0.89 m/s, 159° | - | - |
| 1777257740 | 7.78° C | 78% | 1017.2 hPa | 0 mm | 0.89 m/s, 151° | - | - |
| 1777257439 | 7.78° C | 78% | 1017.2 hPa | 0 mm | 0.45 m/s, 172° | - | - |
| 1777257140 | 7.78° C | 78% | 1017.2 hPa | 0 mm | 0.45 m/s, 176° | - | - |
* Rain latest hour (hover to see other rain measurements)
** Current wind speed in m/s (hover to see current wind gust speed)